USA 167

Last updated on Wed Jun 24 2026 00:03:04 GMT+0000 (Coordinated Universal Time)

1 27691U 03008A 26173.59686764 -.00000002 00000+0 00000+0 0 9997 2 27691 10.9726 43.3630 0003949 316.8606 3.7285 1.00272665 6826
UTC large
Height (km)
Speed (km/s)
/
Latitude / Longitude
Inclination (degrees)
Orbital Period (minutes)
Azimuth
Elevation
Range (km)
Doppler Factor

Next 0 passes for location: London (51.5072 / 0.1276)

No passes found over London.
USA 167